Theta_e
327 329 329 329 328 328 327 328 330 330 331 331 328 329 329 330 330 330 332 327 320 324 328 324 322 322 322 321 320 321 320 321 322 320 319 319 318 318 318 317 317 316 315 313 313 313 313 313 314 315 317 322 326 327 328 328 328 327 328 327 327 327 327 327 327 328 328 329 329 328 328 327 327 328 328 329 329 330 330 330 330 328 327 326 325 325
325 329 328 326 328 329 329 330 331 330 328 327 328 330 329 329 332 330 329 326 321 323 329 327 324 323 322 320 320 320 320 320 320 320 320 319 319 319 319 319 318 318 317 316 315 314 314 313 313 314 315 320 324 326 327 328 328 328 328 327 328 327 327 327 327 327 327 328 328 328 328 327 327 327 328 328 329 329 329 329 330 329 328 327 325 325
325 328 326 325 327 330 331 330 330 331 329 328 329 329 330 329 329 330 330 327 322 323 331 329 324 323 322 320 320 319 320 320 319 319 320 321 321 320 320 320 319 319 319 318 316 314 313 313 312 313 314 317 321 323 326 327 328 328 328 328 328 327 327 327 326 326 326 327 327 328 328 328 328 327 328 328 328 328 328 329 329 329 328 327 326 325
325 325 324 321 324 328 330 330 330 331 330 330 330 329 331 330 329 333 333 326 321 322 325 324 322 321 321 321 320 320 319 320 320 320 319 320 320 320 321 320 320 320 319 318 317 315 313 311 311 312 313 316 319 322 325 326 327 328 328 328 328 327 327 327 326 326 326 326 326 327 327 328 327 328 328 328 328 328 328 328 329 329 328 327 326 326
323 325 325 321 324 328 329 329 330 331 330 330 329 329 332 331 330 333 331 325 324 323 319 321 325 326 325 325 325 323 321 319 319 319 319 319 319 319 319 319 319 318 319 318 318 316 313 311 311 312 313 315 318 321 323 325 326 327 327 327 327 327 327 327 327 326 325 325 326 326 327 327 327 326 326 326 326 326 327 328 328 328 328 327 326 326
323 324 326 326 327 328 329 329 329 330 331 331 329 329 331 333 332 330 327 326 333 333 323 322 331 334 332 332 328 326 325 322 320 320 319 319 318 318 317 317 317 317 317 317 316 316 314 312 312 312 313 314 317 319 320 321 323 323 325 326 327 327 327 327 326 326 325 325 325 326 326 326 325 325 325 325 326 326 327 328 328 328 327 327 327 326
322 321 323 326 327 328 329 329 328 328 331 332 330 329 330 332 331 329 328 329 335 336 325 321 330 334 333 332 330 330 329 325 323 322 321 319 318 318 317 317 317 317 317 317 316 315 315 314 313 312 312 313 315 317 317 319 321 322 323 324 325 326 327 327 326 326 325 325 325 325 325 326 325 325 325 326 326 326 327 327 327 327 327 327 327 327
322 320 321 322 323 326 328 329 328 327 330 331 328 330 330 329 330 331 331 332 333 332 326 323 327 330 329 328 328 330 331 327 325 325 323 321 319 318 318 317 317 317 317 317 318 317 315 314 313 312 312 313 315 316 317 319 320 322 323 323 324 325 326 326 326 326 325 325 325 325 325 325 325 326 326 326 326 326 326 326 327 327 327 327 327 327
320 320 320 320 323 325 325 328 328 326 330 330 325 328 330 328 330 330 330 332 329 328 330 326 325 329 331 328 326 328 328 326 326 326 325 323 322 321 320 319 318 317 316 316 317 317 316 314 313 313 313 314 315 315 316 317 318 320 322 324 325 325 326 326 326 326 326 325 325 325 325 325 325 325 326 326 326 326 326 326 326 326 327 327 327 327
319 320 319 319 322 324 322 327 329 327 329 326 322 324 326 326 328 328 330 331 326 328 333 329 326 329 331 329 328 327 328 328 326 326 325 323 322 321 320 321 319 318 318 317 316 315 313 313 314 314 314 314 314 314 315 316 317 319 321 323 325 326 326 326 326 326 326 325 325 325 325 325 325 325 325 325 325 325 326 326 326 326 326 327 327 327
320 320 319 319 321 322 322 325 327 327 326 324 325 326 326 326 326 326 328 329 328 330 331 328 326 328 330 331 330 329 330 330 327 325 325 322 321 320 319 319 319 319 319 319 318 314 310 310 312 312 312 313 314 314 314 315 315 317 320 322 324 325 326 326 326 325 325 325 325 325 325 325 325 325 325 325 325 325 325 325 326 326 326 326 327 327
321 321 321 322 322 321 323 324 325 326 325 326 330 330 329 327 325 326 326 326 331 333 330 327 326 327 329 330 331 332 332 330 327 326 327 326 324 321 319 319 318 319 320 320 320 317 312 311 311 310 310 311 312 313 313 314 314 315 318 320 323 324 325 326 326 326 326 325 325 325 325 325 325 325 325 324 325 325 325 325 325 325 325 325 326 326
322 321 322 324 322 322 324 325 325 325 324 328 330 329 330 330 329 330 329 328 331 331 329 329 327 327 328 325 325 329 330 330 328 325 325 326 324 322 321 321 320 320 321 320 320 318 316 315 311 308 309 310 310 312 312 313 314 315 317 319 321 323 324 326 326 326 326 325 325 325 325 325 325 325 325 325 325 325 325 325 325 325 325 325 325 325
323 322 323 324 323 323 322 324 326 326 325 327 327 327 329 331 332 332 331 330 331 330 329 327 326 328 329 325 323 324 323 324 324 322 322 323 322 321 321 320 318 319 318 317 317 316 316 314 309 307 308 309 310 311 312 312 312 314 316 318 320 321 322 324 326 326 326 326 326 325 325 325 325 325 325 325 325 325 325 325 325 325 325 325 325 325
324 324 324 322 323 324 322 322 325 327 326 326 325 325 325 328 331 331 332 332 332 330 327 324 326 330 329 325 326 326 324 324 324 323 322 321 320 319 318 317 317 317 317 317 316 315 314 311 308 308 308 309 310 311 312 312 312 312 314 317 319 320 321 323 325 326 326 326 326 326 326 325 325 325 325 326 325 325 325 325 325 325 325 325 326 325
323 325 324 323 323 324 322 322 324 327 327 326 326 326 324 326 329 329 329 329 329 331 327 325 328 330 326 322 322 323 325 326 327 327 325 323 319 318 318 318 317 317 317 318 317 316 314 310 307 308 308 309 310 310 310 311 311 312 313 315 317 319 320 322 324 325 326 326 326 326 326 326 325 325 325 325 326 325 325 325 325 326 326 326 326 325
323 324 323 323 324 323 322 323 323 324 327 326 327 327 325 327 330 329 327 325 325 329 329 328 329 328 324 323 322 322 323 324 326 329 329 324 319 318 320 318 318 318 317 316 316 316 314 309 306 307 307 308 309 309 310 310 311 311 312 314 316 317 320 322 323 324 325 326 326 326 326 326 325 325 325 325 326 326 326 326 326 326 326 326 326 326
322 323 322 322 325 323 322 323 323 322 325 326 327 326 325 327 329 327 327 327 326 328 330 330 329 327 326 327 326 324 323 321 321 323 324 322 320 321 321 319 318 317 316 316 315 314 312 308 304 305 306 307 308 308 309 310 311 311 312 313 315 316 318 320 322 323 324 325 326 326 326 326 326 326 326 326 326 326 326 326 326 326 326 326 326 326
321 322 321 322 324 323 321 323 324 323 322 324 325 324 325 327 327 325 326 328 328 328 329 331 330 328 327 325 324 324 322 323 325 323 322 322 320 320 319 319 318 317 317 318 316 315 315 310 304 304 304 305 307 308 308 310 310 311 311 312 313 315 317 319 321 322 324 325 325 326 326 326 326 326 326 326 326 326 326 326 326 326 326 326 326 326
322 322 321 321 322 323 321 321 325 325 322 322 323 324 324 324 327 327 326 329 329 328 328 329 330 331 329 323 322 322 321 324 328 327 325 324 320 318 319 319 319 319 319 318 317 317 317 311 304 303 304 303 305 306 307 308 308 309 311 311 312 314 316 318 320 321 323 324 325 325 326 326 326 326 326 326 326 326 325 326 326 326 326 326 326 326
324 322 321 322 321 322 322 321 323 325 324 323 324 325 324 323 326 328 327 330 330 327 327 327 326 327 326 321 321 322 320 322 325 324 323 322 319 318 319 319 319 318 318 318 317 317 316 310 304 303 304 303 304 305 305 307 307 308 309 310 311 313 315 317 319 321 322 323 324 325 325 326 326 326 327 326 326 326 326 326 326 326 326 326 326 326
325 321 320 323 322 323 324 321 321 323 324 323 323 325 324 323 325 327 326 329 329 326 327 327 323 321 320 322 323 321 320 321 323 322 320 319 319 318 318 318 318 317 317 317 316 316 315 309 304 303 303 303 304 305 305 306 307 308 308 309 310 311 314 316 317 319 321 322 323 324 325 326 326 326 326 326 326 326 326 326 326 326 326 326 326 326
322 321 320 321 322 324 323 320 319 321 322 324 322 322 324 324 324 325 325 327 328 326 326 327 326 322 319 323 324 321 321 321 320 322 321 318 318 318 318 317 317 316 316 315 314 314 311 303 300 300 300 301 302 304 307 307 307 308 309 309 310 310 312 314 317 319 320 322 323 323 324 325 325 326 326 326 326 326 326 326 326 327 326 326 326 326
320 320 321 320 320 322 321 319 318 317 319 323 322 321 323 324 324 323 323 326 328 327 326 327 327 324 320 324 324 322 322 320 317 319 321 319 317 317 317 316 316 315 315 314 312 312 308 302 300 300 300 300 301 303 307 308 308 308 309 309 309 310 311 313 316 318 320 321 322 322 324 324 324 325 325 325 326 326 326 326 326 326 326 326 326 326
318 319 320 320 320 320 320 320 320 317 318 320 321 321 322 322 323 323 323 324 325 325 326 326 327 324 321 324 325 324 323 320 317 318 319 319 317 315 316 315 315 314 314 315 314 315 315 313 311 305 300 300 301 303 307 309 308 307 308 309 309 310 310 311 313 316 318 320 321 322 323 323 323 324 324 324 325 325 325 326 326 326 326 326 326 325
318 319 318 318 319 318 318 318 319 319 320 320 320 321 321 322 323 324 323 323 323 325 326 325 326 323 320 322 324 323 322 320 320 321 321 318 316 316 315 314 315 314 314 315 314 314 316 316 316 309 302 300 301 303 307 309 308 308 308 309 310 310 310 310 310 313 316 318 320 321 322 323 323 323 324 324 324 324 324 324 325 325 325 325 325 325
319 320 318 316 315 315 314 314 316 319 321 322 322 321 321 321 322 323 324 324 324 325 325 324 324 324 322 321 321 320 322 323 321 322 323 321 318 318 316 314 314 313 313 314 313 312 314 316 318 314 304 300 302 304 307 310 309 309 310 310 310 310 310 310 310 310 312 315 318 320 320 321 322 322 323 323 323 324 323 324 324 324 324 325 324 324
320 319 317 317 315 313 313 313 315 318 319 322 323 322 321 321 322 323 324 324 324 325 325 324 324 324 323 321 320 320 322 324 322 322 324 322 320 320 318 317 317 315 314 313 313 314 314 314 320 320 307 300 302 304 306 309 310 310 311 310 311 311 310 310 309 309 310 312 314 316 317 319 321 321 322 322 322 322 322 322 323 323 323 323 324 324
319 317 316 317 317 315 314 313 314 316 318 320 321 320 320 320 321 323 322 321 322 324 324 323 324 325 322 321 321 320 321 323 323 322 321 318 318 319 320 320 320 317 315 315 316 315 312 311 319 324 312 301 302 303 304 307 308 309 310 310 310 310 310 309 309 309 309 310 311 312 313 315 317 318 319 319 319 320 320 320 320 321 322 322 323 323
316 317 315 316 316 316 316 315 315 315 316 317 318 319 319 319 320 321 321 321 321 322 322 322 324 323 321 321 320 319 322 323 321 319 317 316 317 320 322 321 319 318 316 317 317 314 314 313 314 319 314 303 301 303 303 304 307 307 308 309 308 308 308 308 309 309 309 309 309 310 311 312 314 316 316 316 317 317 318 318 319 319 320 320 321 321
313 316 315 315 315 315 315 315 315 315 315 315 315 316 318 319 319 320 321 321 321 322 322 322 323 323 320 320 319 319 322 322 320 319 317 316 318 320 322 321 320 319 318 317 316 314 316 316 313 317 319 308 301 302 302 304 306 306 306 307 307 307 307 307 307 308 308 309 309 309 310 310 311 312 313 314 315 316 316 316 317 318 318 319 319 320
313 315 315 315 315 316 315 315 315 314 314 314 314 315 316 317 319 319 319 320 321 321 322 322 323 322 320 319 319 319 320 319 319 319 318 318 320 321 321 321 319 317 317 316 316 316 318 318 316 316 315 307 302 302 303 304 305 304 306 308 308 306 306 306 306 307 307 308 308 308 309 309 309 309 310 311 313 314 314 314 314 315 316 317 318 318
313 314 315 315 315 315 314 314 314 313 314 314 314 314 314 315 316 317 317 319 319 320 322 322 321 320 319 320 320 319 319 319 318 320 320 321 321 320 319 318 316 315 316 316 316 316 316 316 314 310 306 304 303 304 304 304 305 306 308 308 307 306 305 305 306 306 306 306 306 307 307 308 308 308 309 310 310 311 311 310 311 312 313 314 315 315
312 313 314 314 314 314 312 312 313 314 315 315 313 313 313 313 314 315 315 316 317 319 321 321 320 320 319 319 319 319 319 318 318 320 322 322 320 319 318 316 315 315 315 315 316 315 314 312 308 305 303 304 306 307 306 305 305 307 308 306 305 305 305 305 306 306 306 306 305 306 307 307 307 308 308 309 309 308 308 308 309 310 311 312 313 313
313 312 313 313 313 312 311 312 313 313 314 314 312 312 312 312 313 314 314 314 314 315 318 319 319 320 320 319 319 319 319 318 318 320 322 321 319 318 317 316 316 316 316 316 316 315 315 312 307 304 305 306 307 307 307 306 307 307 306 305 304 304 304 304 304 305 306 306 305 306 307 307 307 307 307 307 307 306 307 308 309 310 311 312 312 313
313 312 312 313 313 312 312 312 312 313 313 313 314 314 314 313 313 314 314 314 313 313 315 316 316 317 318 318 318 318 318 318 318 319 319 319 318 317 317 316 316 316 316 316 315 314 314 312 310 308 309 310 309 308 308 308 308 306 305 305 304 303 304 304 303 304 305 306 306 305 307 308 307 307 307 306 305 306 307 308 309 310 311 312 312 313
311 312 311 312 313 313 313 313 312 312 313 313 313 314 315 314 314 314 315 314 312 313 313 313 314 315 316 317 317 317 317 317 317 317 316 317 318 318 317 316 316 317 316 314 312 312 311 311 311 311 311 311 310 310 310 308 306 304 304 304 303 303 304 303 303 305 305 306 306 305 306 307 308 307 306 306 305 306 307 307 308 309 310 310 310 311
309 310 312 313 313 312 313 313 313 313 313 311 309 310 313 315 315 314 315 315 313 313 313 312 313 313 313 315 315 315 317 318 317 315 314 319 323 322 320 318 316 314 313 311 310 310 310 311 311 311 310 309 308 310 310 308 306 304 304 303 302 302 302 302 303 304 305 307 308 307 305 306 307 306 306 306 306 306 306 307 307 308 308 308 307 307
306 307 309 311 312 312 312 313 312 312 313 312 312 313 314 317 317 316 316 315 314 312 312 312 312 313 313 313 314 315 317 317 316 314 317 321 323 321 319 319 317 312 308 308 309 309 310 310 310 310 310 308 307 310 310 308 306 304 303 303 302 301 300 301 303 305 308 309 308 307 304 304 305 306 306 306 306 306 306 306 306 305 305 304 304 304
306 307 308 309 311 312 312 313 313 312 313 315 317 319 317 315 315 317 316 316 314 313 313 312 312 312 312 312 313 314 315 315 314 315 318 319 318 317 317 317 318 315 310 308 309 309 309 309 309 308 308 307 308 309 308 307 305 303 303 303 302 300 300 302 305 307 309 309 307 306 304 304 304 305 305 306 306 305 305 305 304 304 303 302 301 302
306 307 307 308 310 311 312 313 313 313 316 317 317 318 317 313 313 316 317 315 316 317 317 315 313 313 314 315 316 315 315 316 318 319 320 318 317 318 316 309 307 308 306 306 308 308 307 307 307 306 307 307 308 308 307 307 305 303 303 302 300 300 302 304 306 307 307 306 305 305 304 304 305 305 305 305 305 304 304 304 303 302 301 300 300 301
307 307 307 308 308 309 310 313 312 313 317 318 315 314 315 315 317 317 316 316 316 316 317 318 316 314 315 317 319 320 320 322 322 321 321 319 317 317 317 310 306 306 306 305 305 306 305 305 305 305 306 307 307 307 306 305 304 303 303 301 301 303 305 306 307 306 304 304 304 304 304 304 305 305 304 303 303 303 303 302 302 301 300 300 300 300
308 308 308 308 309 309 310 312 312 313 314 314 313 313 314 318 321 320 317 315 312 311 315 317 315 312 313 315 317 318 319 320 320 318 317 317 314 313 313 312 308 306 304 302 303 304 303 303 303 303 304 305 305 305 305 303 302 303 302 301 303 306 306 306 306 305 303 303 303 302 303 303 303 302 302 301 301 302 301 300 300 299 299 300 300 300
308 309 310 310 310 310 311 311 312 315 315 312 313 314 314 316 319 320 319 315 310 309 314 317 315 313 313 313 313 313 312 313 314 314 313 312 311 310 311 310 307 304 302 300 302 303 302 301 301 302 303 304 304 304 303 302 302 301 300 302 305 305 305 305 305 303 301 302 302 302 302 302 301 300 300 300 301 301 300 299 299 298 299 299 300 299
309 310 311 311 312 311 311 310 312 316 317 314 314 314 313 314 315 315 316 313 309 310 313 314 314 314 312 311 311 309 309 309 310 310 310 309 309 308 308 307 304 302 301 300 300 302 301 300 300 300 301 302 303 303 302 301 301 299 300 303 304 303 303 304 302 301 301 301 301 301 301 300 299 298 299 299 300 299 299 298 298 297 298 298 298 298
308 309 308 309 312 311 310 310 311 312 315 316 316 313 312 313 313 313 314 313 311 312 312 311 312 311 309 308 309 309 309 309 307 307 308 308 307 307 306 304 302 299 299 299 300 301 300 299 299 299 299 300 301 302 301 300 300 299 300 302 302 301 302 302 301 300 300 300 300 300 299 298 297 297 298 299 299 299 298 297 297 296 296 296 297 297
308 308 308 309 311 311 311 311 310 309 311 313 314 313 311 312 313 314 316 316 312 310 310 309 309 308 306 306 307 308 308 307 307 307 307 307 307 306 305 305 303 299 298 299 300 300 299 297 297 297 297 298 299 300 300 299 299 299 299 300 300 300 300 300 300 300 299 299 299 298 297 296 296 296 296 297 298 298 297 297 297 296 295 295 296 296
307 306 308 309 309 309 310 310 308 308 310 311 311 312 311 311 311 311 310 308 306 305 306 305 306 307 307 307 307 307 307 306 306 307 307 306 306 305 304 304 303 300 299 299 299 299 298 296 296 296 295 296 298 298 298 298 298 297 298 298 299 298 298 298 298 299 298 298 297 296 296 296 296 295 296 296 296 296 296 296 296 296 296 296 297 297
303 304 307 309 308 308 308 307 306 307 309 310 311 311 309 308 308 308 306 304 304 307 308 306 305 305 306 307 307 307 306 306 305 306 306 305 304 304 304 303 301 299 298 298 298 298 296 295 295 295 295 295 296 296 296 296 296 295 296 296 297 297 296 297 297 297 297 296 296 295 295 295 295 295 295 295 295 296 296 296 296 296 296 297 298 299
302 305 307 307 308 307 307 308 308 307 308 310 310 311 310 307 306 308 308 307 306 307 307 308 307 305 303 304 305 305 305 304 304 305 305 304 303 303 302 301 299 297 297 297 297 296 295 294 294 294 293 294 294 293 293 293 294 294 294 295 295 295 295 295 296 296 295 295 295 294 294 294 295 295 295 294 294 294 295 295 296 296 297 297 298 299
304 306 306 306 307 306 305 307 307 305 306 307 306 308 310 307 305 306 309 309 307 304 304 306 306 305 302 301 300 301 303 304 304 304 304 303 301 300 299 299 298 298 297 296 295 294 293 293 293 292 292 292 292 291 291 292 292 293 293 293 293 293 293 294 295 294 294 294 294 294 294 294 294 294 294 294 294 293 293 293 293 294 296 298 299 299
Wind_Speed
1 3 5 8 7 8 8 7 6 3 5 9 7 6 6 5 4 4 4 4 1 3 4 8 7 10 16 14 10 8 3 5 9 11 13 12 9 8 9 11 12 11 12 17 22 23 21 21 22 23 24 26 27 29 31 32 34 35 35 35 37 37 36 36 36 35 35 36 34 33 34 35 35 34 35 35 36 36 35 34 33 33 32 31 30 28
1 5 8 6 4 6 7 6 5 4 5 6 6 5 5 6 5 5 4 3 0 2 3 4 5 9 15 15 10 6 4 7 11 13 15 14 11 9 11 14 13 11 10 12 15 20 22 21 21 23 24 24 26 29 32 34 35 35 36 37 38 38 37 38 38 38 38 39 38 37 37 36 36 35 36 37 37 36 36 35 35 34 33 32 31 30
1 6 6 2 1 5 6 6 7 4 5 4 3 4 3 4 2 4 4 2 1 2 3 3 4 8 13 16 11 7 7 9 12 15 16 14 11 11 13 13 12 12 10 8 11 17 21 21 21 22 24 26 28 30 31 33 34 34 36 39 39 39 39 40 40 40 40 41 40 39 38 36 35 35 36 37 36 35 35 36 36 36 35 34 32 31
3 4 5 4 2 4 5 6 8 5 3 3 3 3 3 3 3 3 4 1 1 1 1 2 5 7 10 14 14 10 11 11 14 15 15 13 12 14 14 11 11 14 12 9 10 13 17 19 20 22 25 28 29 30 31 32 34 35 38 40 41 40 40 41 41 41 41 39 38 37 36 35 33 33 33 34 35 35 35 36 36 37 36 35 34 33
7 2 2 4 4 5 5 6 8 6 4 5 5 5 3 4 5 4 2 1 2 3 2 1 6 7 8 12 15 9 8 11 13 13 13 13 12 13 13 13 14 14 12 11 11 11 12 16 20 25 27 28 29 31 32 34 35 37 39 40 41 41 41 42 42 42 40 38 36 34 32 30 29 29 29 29 32 34 35 36 37 37 36 36 35 35
9 5 4 5 4 6 6 6 9 8 6 6 7 7 6 6 5 2 2 3 3 4 3 0 4 6 5 10 13 6 3 7 9 9 13 14 12 11 11 14 16 13 11 11 12 12 12 16 21 24 27 27 30 33 35 35 36 38 39 39 39 40 41 42 42 42 40 38 37 34 32 31 29 28 30 34 36 36 37 38 38 37 36 36 36 36
6 6 5 4 3 4 5 6 8 9 6 4 6 8 7 6 5 4 4 2 1 3 2 1 2 6 4 6 9 6 5 8 7 8 11 12 11 10 11 14 13 12 11 10 11 12 14 18 19 22 26 28 32 35 35 35 36 37 38 38 39 40 41 43 42 41 40 40 39 38 38 38 36 34 36 39 38 37 38 38 37 37 36 36 36 36
5 9 8 9 7 5 6 5 6 9 7 3 4 10 9 7 7 5 5 4 3 2 2 1 2 5 8 7 6 7 8 8 6 9 10 11 13 12 12 13 13 12 10 8 10 12 14 17 19 21 26 29 33 35 33 33 36 37 38 39 39 40 41 42 42 41 42 42 42 41 41 40 40 40 40 37 36 36 36 36 37 37 37 37 36 36
7 12 13 12 9 7 9 5 5 8 6 2 4 8 9 8 7 6 6 4 1 2 4 4 3 4 9 5 1 3 8 9 6 9 12 13 15 15 14 14 13 12 10 9 11 12 12 17 21 24 26 29 32 34 32 34 36 37 38 38 37 39 40 41 41 42 44 45 44 43 42 41 41 42 39 35 34 35 35 35 37 36 37 37 37 37
4 10 14 14 9 9 11 6 7 9 5 1 4 6 4 4 4 5 5 4 2 1 8 8 6 5 9 5 1 0 5 8 6 8 11 13 14 14 13 13 11 9 8 9 10 11 14 19 24 24 24 26 29 31 32 34 35 35 35 35 36 38 39 38 39 41 44 45 45 43 43 42 42 41 37 34 33 34 34 35 36 37 38 38 38 38
1 3 8 10 9 9 8 4 6 9 5 3 4 6 5 4 3 2 3 3 3 5 11 10 10 6 8 3 4 3 4 6 6 6 9 11 12 13 12 11 11 9 7 7 8 10 15 21 24 22 22 25 27 27 29 32 33 34 34 34 36 38 38 37 38 39 42 43 44 45 45 44 44 40 36 34 34 34 34 36 37 37 38 38 39 39
3 4 4 4 5 6 6 3 2 6 8 5 3 3 3 2 2 2 1 3 4 6 9 7 9 9 8 5 3 4 4 5 6 7 9 11 11 11 10 10 9 8 6 6 7 8 10 14 17 19 22 25 25 24 27 30 32 33 34 34 35 37 38 38 38 39 41 41 42 44 44 43 42 39 36 36 37 36 36 38 38 36 37 38 38 38
3 4 3 1 4 8 8 5 2 4 7 6 4 3 3 3 3 3 3 3 4 6 5 4 8 7 9 12 11 10 8 7 8 8 8 10 11 12 12 10 7 6 7 7 7 7 7 8 11 15 19 22 23 25 28 30 30 31 33 34 35 37 38 37 37 38 40 42 43 44 43 42 41 39 38 39 39 38 39 39 37 36 37 38 38 39
2 3 4 4 4 8 10 9 6 5 7 9 8 6 4 3 3 3 3 1 3 6 4 5 7 2 7 11 15 17 15 14 13 11 11 11 14 16 15 11 9 9 10 8 7 8 7 8 11 14 19 21 22 25 27 28 29 30 31 32 35 37 36 35 37 38 40 42 44 45 45 44 43 41 40 40 40 40 39 39 38 38 39 39 39 40
6 4 6 8 5 8 12 11 7 6 8 10 7 6 5 4 3 3 3 2 3 3 2 3 5 4 6 4 5 9 9 9 10 11 11 12 14 15 13 12 13 13 12 8 7 9 9 11 15 17 20 22 23 24 25 26 27 27 30 33 35 37 36 35 37 38 40 43 45 44 45 45 44 42 41 42 42 40 38 38 38 39 40 40 41 40
7 4 6 9 6 12 16 9 5 6 5 6 4 5 7 6 3 1 0 3 3 1 2 2 2 5 6 6 7 6 3 4 7 8 10 12 13 11 11 12 12 12 11 8 7 9 11 12 16 18 20 23 24 24 25 26 26 27 30 33 34 37 36 35 37 39 41 42 42 43 44 44 43 42 41 41 41 40 39 38 39 40 41 40 40 38
7 5 5 6 5 13 15 9 8 7 5 4 4 6 5 2 5 2 2 2 2 2 3 3 3 4 5 10 11 7 7 8 9 9 11 12 10 8 10 10 10 11 11 9 7 9 10 11 14 18 21 23 24 25 27 28 28 27 29 31 33 35 34 34 37 39 40 40 40 41 43 43 43 42 42 42 42 41 40 39 39 39 39 38 37 36
6 3 2 6 7 9 8 8 9 5 4 4 5 6 2 4 3 2 2 0 1 4 4 3 6 5 3 7 6 5 7 7 8 10 11 13 10 9 11 11 11 11 10 9 8 9 10 10 13 18 21 24 26 27 28 29 28 26 27 29 31 33 33 34 36 37 38 38 39 40 41 42 42 43 44 44 44 41 39 39 39 38 37 37 36 35
4 1 3 6 9 4 5 6 6 3 2 2 3 5 4 1 1 2 3 2 3 4 3 3 6 4 5 9 8 10 11 5 4 8 9 14 15 11 10 12 12 11 8 9 9 9 9 10 14 18 21 23 25 25 26 26 25 25 26 28 30 32 33 32 33 35 37 38 39 39 40 41 42 43 43 44 43 40 38 39 39 38 38 37 35 34
3 3 4 3 4 5 5 4 6 5 1 2 1 3 2 2 3 4 4 2 2 4 4 3 4 3 7 11 12 16 13 5 6 7 8 13 15 10 8 10 11 10 8 8 8 9 9 10 14 17 18 20 21 21 23 23 22 24 25 25 27 30 30 29 30 33 35 37 37 37 38 39 40 41 42 42 40 38 38 39 38 38 38 36 34 34
3 3 3 2 1 5 4 5 8 9 7 4 3 5 4 2 1 1 3 2 3 4 3 3 5 6 7 7 10 14 10 6 9 9 9 12 12 10 9 9 10 10 9 9 8 9 10 11 14 16 16 17 19 20 21 21 22 23 24 25 26 27 27 28 30 32 34 35 36 36 37 38 39 39 39 39 39 37 38 39 38 37 37 35 34 34
1 2 3 1 2 4 3 3 2 3 7 8 7 7 8 6 3 2 4 3 2 4 4 4 6 10 8 4 6 10 8 7 10 10 10 10 11 11 10 10 10 9 10 10 8 8 8 8 12 15 16 18 19 20 20 21 22 23 24 25 25 25 27 29 31 31 33 33 33 35 37 37 36 36 37 37 36 36 37 38 37 37 35 34 34 33
3 2 2 1 3 3 3 4 4 3 2 4 5 5 6 5 5 6 7 4 3 3 1 1 4 12 10 5 6 8 7 8 9 9 9 9 10 11 11 11 10 9 10 9 8 7 7 8 13 16 19 20 20 20 20 20 22 24 24 23 23 25 27 28 28 29 29 30 31 33 34 34 34 34 34 34 35 36 37 38 37 36 35 34 34 33
3 2 3 3 3 3 3 0 3 5 4 1 4 4 6 7 8 9 7 3 4 4 3 2 4 12 11 4 6 9 8 8 7 7 9 9 8 10 10 11 10 9 10 8 7 7 6 9 12 13 16 19 20 20 20 21 22 23 23 22 23 25 25 25 25 25 26 28 30 31 32 33 34 34 34 35 36 37 37 37 37 36 35 34 34 33
4 3 5 4 2 1 2 2 2 2 1 3 4 6 10 12 11 10 5 1 2 7 9 7 6 11 8 3 4 8 7 7 5 5 8 8 7 9 9 9 10 10 10 8 7 8 7 9 10 9 13 16 18 19 19 19 20 21 22 22 22 23 22 22 22 23 25 27 29 30 31 33 34 34 36 37 37 37 37 36 36 35 35 34 34 34
4 4 5 6 6 5 6 6 6 5 3 1 2 5 9 12 13 10 5 3 5 6 9 8 7 11 13 9 8 8 4 6 7 5 7 7 7 9 8 9 9 9 10 10 9 8 8 8 9 9 13 16 18 18 18 18 19 20 20 20 20 20 20 20 21 23 25 27 28 30 32 33 34 34 36 36 36 36 36 35 35 35 35 35 34 34
3 4 6 8 10 10 9 9 5 3 3 2 4 7 9 11 13 10 6 6 7 6 8 10 8 11 19 22 21 14 6 7 8 6 7 7 7 8 9 9 9 8 10 11 9 9 8 9 10 11 12 15 17 17 17 18 19 19 19 19 19 19 19 20 21 23 25 27 29 31 32 33 34 34 35 35 35 35 34 34 34 34 35 35 34 34
4 5 8 10 13 13 12 10 4 3 5 7 8 11 12 11 12 12 10 9 8 7 9 10 10 12 20 26 27 19 8 7 7 7 8 8 7 7 8 9 10 10 11 10 10 10 9 9 10 10 11 14 15 16 18 19 20 20 20 20 20 19 21 21 22 24 25 26 28 31 32 33 32 33 33 33 33 33 33 33 33 33 33 33 33 34
4 6 8 9 12 14 13 12 6 3 5 6 8 11 12 12 13 14 14 13 11 9 9 9 9 13 19 24 28 23 11 8 10 10 9 7 6 7 8 9 11 12 12 12 12 11 9 8 9 10 11 12 13 16 18 20 22 22 23 23 22 22 23 23 24 25 25 27 29 31 31 30 30 30 31 31 31 32 32 32 31 31 31 32 33 33
2 4 6 6 9 12 13 12 9 6 7 8 9 10 10 11 13 14 15 15 15 15 15 14 16 17 17 20 26 23 8 5 8 7 5 5 6 7 8 9 11 12 12 13 12 10 8 8 9 10 10 11 14 17 18 21 23 24 25 26 25 25 26 25 25 26 27 29 30 30 28 28 28 28 28 29 30 31 30 30 30 30 30 31 32 31
2 4 5 4 4 9 11 11 10 9 10 12 13 11 8 8 9 12 15 15 15 17 18 19 21 19 15 16 24 24 8 2 10 8 4 5 6 7 8 10 11 12 12 13 12 9 8 8 9 9 8 11 17 19 20 23 24 23 24 26 27 27 27 26 26 28 29 31 30 28 27 26 26 27 27 28 29 29 29 29 29 29 30 30 30 30
4 3 2 3 3 8 10 12 12 10 9 12 13 12 10 10 11 13 14 14 15 16 17 18 17 15 13 14 19 24 19 18 22 16 7 5 7 8 10 12 13 12 12 13 12 10 10 11 11 9 9 13 19 21 24 25 23 22 25 28 28 27 25 25 26 28 30 31 29 27 26 26 26 26 26 27 27 28 28 28 28 29 29 29 29 28
5 4 2 4 4 9 13 13 10 7 6 8 10 14 17 18 18 17 15 14 16 14 12 13 13 12 14 14 16 22 26 28 26 13 5 7 9 9 11 13 13 12 10 12 13 12 12 11 11 11 12 16 21 24 27 25 23 25 29 28 26 25 24 25 27 28 29 29 28 27 26 25 25 25 26 26 26 25 25 25 26 27 27 27 26 25
5 5 4 4 3 8 14 11 6 6 6 6 9 16 20 21 20 19 17 16 15 12 11 12 13 14 15 15 18 22 25 27 23 9 5 8 8 9 12 14 12 10 9 11 12 14 13 11 11 16 18 21 25 27 27 26 27 31 30 25 23 23 23 25 26 27 27 27 27 27 26 24 25 26 26 25 24 23 23 23 24 25 25 24 24 24
5 5 5 3 2 6 10 7 5 7 8 9 12 15 17 18 20 21 22 22 21 19 18 17 17 17 15 15 18 19 21 27 24 11 7 10 10 11 14 14 10 9 9 11 13 16 16 12 12 16 22 25 26 26 26 28 31 32 29 24 23 23 22 24 25 26 26 26 27 27 26 25 26 26 25 25 24 23 24 24 24 24 24 23 24 24
7 6 3 3 4 4 6 6 6 7 8 10 11 8 8 13 17 18 20 22 22 22 20 19 19 19 18 19 21 21 24 27 21 12 11 12 11 10 12 12 10 10 10 12 13 15 18 18 16 19 24 28 27 26 28 31 30 27 25 24 23 23 23 22 23 24 25 27 28 29 28 27 27 27 26 25 25 25 26 26 25 25 24 24 24 23
8 7 5 5 6 5 7 8 6 8 11 11 11 9 8 10 13 14 13 16 18 18 18 19 21 22 23 23 23 24 24 20 15 15 16 13 9 9 11 12 13 13 13 15 18 20 24 27 27 27 28 29 29 30 33 32 26 21 22 24 24 24 23 22 24 26 27 29 30 31 29 28 28 28 27 27 27 28 29 28 26 26 25 24 24 23
6 8 8 8 7 6 8 8 6 7 10 12 18 18 11 8 10 12 10 11 12 14 18 21 23 25 24 23 23 23 19 12 12 17 15 5 6 8 10 12 13 12 13 16 19 22 25 28 29 30 29 27 28 33 34 30 25 22 23 25 25 24 23 24 26 28 29 31 34 33 31 30 30 29 29 29 30 31 30 29 28 27 25 24 24 23
3 3 5 6 6 7 9 9 8 8 8 11 17 14 7 9 10 8 6 10 14 17 18 18 20 23 21 21 21 18 11 9 13 14 6 3 2 5 6 8 10 10 12 16 18 19 23 26 26 29 29 25 28 33 32 27 24 23 24 26 25 23 24 26 29 31 34 36 37 35 33 31 31 31 31 32 32 32 31 30 29 27 26 25 25 24
4 3 4 5 6 8 10 9 7 5 7 10 10 7 5 7 8 8 7 10 11 13 12 13 17 19 19 18 17 13 10 11 13 9 1 1 6 6 5 7 9 8 11 16 19 20 23 24 23 24 26 26 28 31 28 24 22 23 26 27 24 23 26 30 33 37 39 38 36 34 33 32 32 33 33 34 33 32 31 30 29 27 26 25 24 23
3 4 5 6 7 9 11 10 6 4 6 8 6 4 4 4 6 6 10 6 1 4 4 8 13 13 13 13 11 8 9 9 8 7 5 4 7 7 6 8 10 11 14 18 22 23 22 22 22 22 26 30 32 31 27 23 21 24 28 26 22 26 32 34 36 39 39 36 34 34 34 34 35 35 36 35 33 31 30 30 29 28 26 25 25 24
4 3 4 5 6 7 8 7 6 7 8 8 5 3 4 5 3 7 6 2 5 2 3 1 3 1 3 4 5 5 6 6 6 7 8 7 7 7 8 9 10 13 16 18 21 21 18 19 21 22 26 31 32 30 27 22 21 26 27 23 26 35 37 36 38 40 36 34 34 34 35 35 36 37 36 34 31 30 30 29 28 27 26 26 26 25
6 5 4 5 5 4 3 4 4 6 5 9 9 1 3 6 6 5 3 2 3 2 2 3 2 1 1 1 4 5 6 7 8 8 8 8 7 7 8 8 8 11 13 15 18 20 17 17 18 21 26 31 32 31 26 19 22 27 25 25 35 40 37 36 39 38 34 33 34 34 34 35 36 35 34 33 31 30 29 28 27 26 26 27 26 25
5 5 4 4 4 4 4 6 6 5 4 9 11 6 7 7 4 5 5 3 1 0 2 2 3 4 5 4 5 6 6 8 9 8 8 8 7 6 7 8 8 10 12 14 18 20 18 16 17 21 26 31 32 32 27 20 23 26 26 33 41 38 33 36 37 33 32 33 34 34 35 35 34 33 33 32 31 30 28 27 27 27 28 28 27 26
6 6 4 4 4 4 6 7 5 2 3 5 5 4 2 0 2 5 5 4 2 2 2 2 4 6 5 6 6 5 6 8 8 7 8 8 7 7 7 8 9 11 13 16 20 21 19 16 17 19 24 30 33 33 30 24 23 25 30 38 39 32 30 34 31 29 31 32 33 34 34 32 31 31 32 32 32 31 30 30 29 29 29 29 28 27
4 3 3 2 2 4 7 9 6 4 5 6 4 2 1 1 2 4 3 2 3 4 3 3 6 6 5 5 5 5 6 7 7 8 8 7 8 8 6 8 10 12 13 15 19 21 19 17 17 17 19 27 32 32 31 28 23 26 33 38 35 29 29 29 27 28 31 31 32 32 30 28 28 29 30 31 32 32 31 31 31 30 29 29 28 27
3 3 3 2 3 3 5 6 6 7 8 6 5 4 4 4 5 5 4 4 4 4 5 7 8 7 5 6 6 6 7 7 7 8 7 7 8 8 7 7 8 10 12 15 18 21 20 16 15 15 16 22 27 31 32 30 26 27 33 35 33 31 29 27 27 29 29 29 29 28 27 27 27 27 28 29 30 30 29 30 30 29 29 29 28 26
1 3 4 5 6 6 6 5 3 5 7 6 5 5 5 4 5 5 4 3 4 4 5 7 6 5 4 4 4 6 7 7 7 8 8 7 7 7 8 9 8 10 14 17 19 20 18 15 15 15 16 19 24 28 30 30 30 29 30 31 31 30 28 27 27 27 27 26 25 25 25 26 26 26 26 27 28 29 29 30 31 30 31 32 32 30
2 2 3 3 3 7 8 6 3 6 9 7 5 6 6 6 6 5 3 1 1 2 4 4 3 4 4 5 6 6 8 9 8 8 8 8 8 8 9 9 10 12 14 17 18 18 17 17 17 18 18 20 23 24 26 29 30 29 28 28 26 25 26 27 26 25 24 23 22 22 23 24 25 26 26 27 27 28 28 30 32 31 30 31 33 33
2 3 2 1 3 6 6 4 3 3 6 6 4 5 5 3 3 5 6 5 5 4 6 8 7 6 5 6 5 6 8 9 8 8 8 7 7 9 10 10 11 13 15 16 17 17 17 17 18 19 21 22 22 22 23 26 28 27 26 25 22 21 23 25 23 22 21 20 21 22 23 23 25 26 26 26 26 26 25 26 28 30 29 29 30 31
5 5 5 4 6 4 3 4 2 2 4 6 4 4 5 2 3 5 7 7 5 2 2 6 9 10 10 7 4 5 7 9 8 7 9 9 8 10 12 13 12 13 15 17 16 16 17 18 17 18 20 22 22 21 20 22 23 23 23 22 20 19 21 22 21 20 19 19 20 22 23 24 24 24 25 25 25 25 24 22 21 23 25 27 28 28
Wind_Direction
112 152 189 199 190 186 184 179 166 123 135 150 153 179 186 189 227 239 252 294 205 168 238 231 230 251 260 262 254 256 252 258 267 265 264 262 255 245 246 252 251 248 250 254 257 259 259 256 257 257 253 245 238 235 234 231 230 229 229 229 230 231 229 228 227 225 224 224 224 226 229 231 233 235 237 239 241 242 243 245 246 247 247 247 246 246
31 197 208 205 172 163 166 158 141 111 110 137 158 174 190 199 224 243 239 296 7 181 261 246 234 252 261 264 254 238 232 243 249 253 259 259 256 250 247 251 253 253 253 255 259 260 259 256 255 255 250 240 233 232 231 229 229 229 228 228 230 230 227 226 227 225 224 225 225 225 228 231 233 235 236 239 241 243 245 245 246 246 247 247 247 247
272 232 222 238 97 130 148 161 157 137 118 125 142 149 187 210 231 280 264 265 150 188 266 283 261 257 263 269 260 228 223 239 241 243 251 257 257 255 251 252 254 257 256 250 256 260 258 256 253 249 244 238 235 234 231 228 228 226 226 228 229 228 226 227 227 226 226 227 227 228 230 232 233 236 240 243 245 247 247 246 246 246 246 246 246 247
211 254 231 238 258 120 139 171 161 150 156 163 148 151 194 184 164 267 283 274 190 209 272 300 288 269 264 274 268 233 216 235 244 243 249 252 250 253 255 258 256 256 257 251 250 257 256 252 246 240 238 237 235 232 229 226 225 225 226 228 227 226 225 226 227 227 227 228 228 229 231 234 235 239 243 244 244 244 245 245 245 244 245 246 247 248
200 213 143 181 191 161 159 175 170 177 204 202 198 193 182 166 185 219 280 323 352 351 353 296 288 273 236 252 263 240 205 231 247 249 255 254 247 253 263 265 258 254 256 253 251 253 250 243 239 237 237 235 231 229 229 226 225 226 228 229 227 225 225 225 227 227 226 224 225 225 225 229 233 235 236 236 237 237 239 241 243 244 245 247 248 247
214 191 115 123 148 168 178 187 187 186 195 213 211 199 173 165 191 204 59 29 9 329 326 11 286 279 214 228 254 260 198 228 247 250 255 259 255 254 259 260 258 255 251 248 250 253 249 242 240 239 236 231 229 232 233 230 230 230 230 230 227 225 225 225 226 225 222 220 221 218 215 217 220 223 226 228 230 232 235 238 241 244 245 246 247 247
216 187 171 181 179 182 199 210 201 183 184 226 199 173 166 154 153 137 107 91 305 271 289 99 241 275 271 240 244 253 243 239 250 258 258 263 263 253 249 254 257 256 249 242 244 247 248 244 239 238 235 229 231 236 236 233 232 232 230 230 228 227 226 225 224 222 220 218 218 217 217 218 217 219 225 228 230 233 236 238 240 243 245 246 247 248
163 169 197 216 215 216 221 223 204 185 187 229 163 155 164 162 157 151 143 175 226 284 301 133 166 269 279 261 231 224 241 247 249 261 264 261 261 256 251 253 252 252 247 241 244 243 244 244 239 236 236 234 237 240 237 233 233 233 231 230 229 228 226 225 222 220 219 218 217 217 219 221 221 224 228 230 231 233 235 237 240 241 244 246 247 248
138 167 191 198 201 215 218 210 177 184 198 223 152 154 167 170 166 154 146 183 245 355 269 227 150 259 269 263 245 216 239 247 236 245 256 255 256 257 254 253 250 249 244 237 243 245 246 247 245 242 241 241 242 242 238 237 237 236 234 232 229 229 227 224 221 219 219 219 218 218 218 221 224 227 230 231 232 233 233 235 238 240 242 244 246 247
163 182 184 181 191 211 209 188 159 183 210 193 120 103 107 120 121 135 145 157 129 217 245 225 168 234 269 250 173 314 246 249 237 230 244 250 253 257 258 260 258 253 245 237 242 248 249 250 252 252 249 246 245 244 242 242 240 237 235 232 230 230 228 225 222 219 219 219 217 218 219 220 224 226 227 228 230 231 231 233 235 237 239 241 243 244
217 174 168 180 195 200 194 174 167 179 172 119 96 82 73 67 70 97 120 126 151 227 244 226 175 199 273 255 163 201 228 224 227 236 250 255 258 261 261 263 263 257 251 244 245 250 253 256 258 258 255 252 249 246 244 243 240 237 235 232 231 232 229 226 224 221 221 220 217 218 220 221 223 224 223 223 225 227 228 230 232 234 236 238 240 242
124 133 160 196 191 165 153 161 190 161 150 131 93 103 114 105 91 91 115 161 196 234 245 221 166 179 246 258 178 228 248 221 216 231 253 260 264 268 266 261 260 260 259 254 251 255 258 261 261 258 255 254 251 246 242 241 239 236 234 231 231 231 229 226 224 222 222 221 220 221 222 223 224 224 222 222 223 224 225 228 230 231 233 235 237 238
144 166 171 154 176 167 150 155 171 149 160 161 149 158 170 180 176 172 191 189 207 251 256 166 145 173 243 259 252 250 255 245 228 219 237 258 268 270 268 264 263 264 258 253 252 255 256 257 257 255 254 254 251 246 243 241 238 235 233 229 229 231 229 225 223 223 222 221 221 223 223 225 226 225 224 224 226 226 226 228 228 227 229 232 234 234
157 208 180 153 184 180 164 167 177 175 182 182 176 182 191 192 197 188 185 164 209 256 270 136 132 179 264 263 253 244 239 237 239 239 240 250 261 264 267 271 274 273 266 258 255 257 255 252 252 252 253 254 251 248 246 243 239 235 232 229 228 231 230 225 223 223 222 222 223 224 224 225 226 226 226 226 228 229 228 228 228 229 230 231 233 234
183 211 185 181 179 173 184 191 175 150 177 191 181 174 193 204 219 205 174 181 207 254 283 136 136 207 233 250 245 237 243 244 246 255 256 254 257 261 269 274 274 275 273 265 255 256 254 251 252 253 254 255 255 254 250 246 242 236 232 230 228 230 229 225 223 223 223 224 225 224 225 225 225 226 227 228 230 230 229 229 230 231 233 234 236 237
199 245 196 181 162 170 189 194 143 127 166 190 149 158 210 212 191 245 97 156 160 348 301 207 203 224 236 282 279 244 252 270 258 261 264 259 257 262 269 269 269 274 275 269 255 258 259 253 253 255 256 258 259 258 254 250 247 240 235 231 228 231 230 224 223 224 224 225 225 224 225 225 225 225 227 229 230 231 231 231 232 234 235 237 238 238
194 232 191 156 165 186 187 174 165 169 162 167 161 180 215 164 132 189 278 110 109 271 248 186 231 274 289 289 283 256 227 233 241 247 254 257 257 264 267 262 262 266 271 273 264 264 268 264 259 257 257 259 258 257 255 253 251 245 239 234 231 232 230 226 225 225 225 225 225 226 226 226 225 225 227 229 231 232 231 232 233 235 237 237 238 239
182 217 195 158 187 205 177 161 190 200 129 144 187 181 130 50 75 181 231 108 141 241 255 192 220 248 269 270 298 299 248 231 228 238 254 266 260 252 258 262 263 263 269 279 274 267 269 267 262 259 257 258 257 257 257 256 254 249 245 241 236 234 231 228 227 226 226 225 225 226 226 226 226 226 228 230 232 232 231 232 233 234 236 238 238 239
163 189 271 191 181 164 101 149 209 265 68 117 185 164 131 112 217 157 186 213 187 221 263 229 216 212 226 246 267 269 257 233 226 241 251 262 259 253 261 268 271 272 272 277 274 269 267 261 256 256 257 258 259 259 259 258 255 250 248 245 241 239 238 233 229 227 227 226 226 227 227 228 228 228 229 231 232 232 231 232 234 234 236 237 237 238
119 163 269 272 175 145 117 162 205 210 185 34 69 156 160 228 195 164 193 211 176 217 247 240 227 216 227 236 244 255 254 212 215 242 237 250 259 261 262 267 273 277 273 270 270 269 268 265 262 260 262 266 268 267 262 258 253 248 248 247 244 243 241 237 234 231 229 228 227 227 228 229 229 229 230 231 232 231 232 234 234 235 236 236 236 237
63 174 232 325 186 166 162 195 204 197 187 181 177 177 194 210 130 160 216 163 151 210 233 249 256 251 237 224 232 249 252 208 213 234 235 245 260 263 258 261 267 272 272 267 264 265 270 275 278 276 275 277 278 275 267 260 256 253 249 247 245 243 241 239 236 234 232 230 228 228 228 229 230 230 231 232 232 232 233 235 235 235 236 235 235 236
98 186 182 135 173 181 186 189 184 189 181 187 199 193 195 190 144 199 227 187 178 208 204 218 252 260 248 187 212 240 235 209 216 227 237 246 257 262 261 258 259 265 270 268 262 267 277 285 289 292 290 284 279 275 269 260 256 254 248 244 242 241 241 240 238 236 234 232 230 230 230 231 231 231 231 231 232 232 234 235 236 236 236 235 236 235
119 119 138 166 221 219 197 142 89 49 121 195 227 204 199 196 178 208 222 203 199 212 209 153 257 270 262 184 196 236 223 213 215 216 233 245 251 258 263 265 265 263 264 267 269 275 281 285 291 295 292 285 277 270 265 257 251 249 247 243 240 240 241 241 239 238 237 235 234 234 233 233 233 233 233 232 232 233 234 236 237 236 235 235 236 235
122 121 174 208 246 280 296 70 56 37 49 315 260 217 204 203 200 218 223 191 190 195 204 201 235 267 268 185 198 237 229 226 222 211 232 245 251 258 264 272 276 272 271 277 281 280 280 283 289 291 286 281 275 268 261 254 249 245 243 240 237 239 241 241 240 239 238 237 237 238 236 235 235 234 234 234 234 235 236 237 237 236 235 235 236 235
182 172 182 198 217 292 293 288 322 332 191 210 232 220 215 209 208 225 235 222 221 199 200 213 231 256 260 157 197 244 248 256 254 236 244 246 253 265 270 273 276 279 284 287 283 282 283 284 286 282 276 273 270 265 260 254 248 243 241 240 239 242 244 243 241 238 237 237 237 237 237 236 236 235 235 236 236 237 237 237 237 237 236 236 235 235
185 186 181 197 206 201 206 216 224 228 216 200 228 224 224 216 208 215 228 236 231 201 199 214 229 254 267 273 262 254 261 280 276 265 263 254 252 265 270 273 277 283 286 285 281 280 282 283 280 274 270 265 260 259 256 252 247 243 243 242 242 244 244 242 240 237 236 235 235 236 236 236 235 235 236 237 237 238 239 238 238 237 237 236 235 234
149 210 200 202 215 218 220 226 217 181 164 170 203 210 218 219 212 213 222 222 219 212 218 222 223 253 270 272 268 257 233 248 259 256 261 259 252 259 262 267 275 276 276 280 278 276 277 276 274 271 268 262 259 259 257 252 248 244 243 243 241 242 242 239 237 235 234 233 233 234 235 235 235 235 236 237 238 239 239 239 238 238 238 237 235 234
117 213 208 206 223 229 232 238 221 142 183 197 204 212 217 215 210 217 227 222 217 225 232 226 212 233 259 266 268 266 242 231 246 240 242 250 251 257 263 270 275 273 275 278 275 273 271 271 277 280 273 266 263 262 260 254 250 246 244 245 243 241 241 238 234 233 233 232 232 234 235 235 235 235 236 237 238 238 238 237 237 237 237 237 235 234
140 215 211 207 229 238 241 243 229 173 207 211 211 221 222 213 206 217 231 229 225 232 244 243 221 226 248 261 267 271 258 231 238 231 225 238 249 258 266 271 274 276 278 277 276 277 273 265 270 274 276 277 273 266 262 256 251 248 246 246 244 241 241 239 235 234 232 231 233 236 237 236 236 236 236 236 236 236 236 235 235 235 235 235 235 235
144 218 214 203 231 245 247 248 240 226 238 244 237 231 230 223 214 219 230 231 230 233 239 245 242 237 242 257 269 275 262 207 245 245 215 233 249 256 263 268 272 274 275 275 278 283 276 255 252 262 277 285 275 265 261 258 254 250 249 249 248 244 242 238 236 235 233 232 235 237 236 236 236 236 235 234 234 234 234 234 234 234 233 233 234 234
156 213 212 182 234 254 252 253 246 230 233 244 246 243 245 252 240 230 231 231 231 235 235 238 245 247 246 256 269 275 280 272 273 266 225 233 247 251 258 262 264 266 270 275 278 279 272 261 256 260 269 272 268 263 259 258 258 255 254 254 252 248 243 237 234 235 236 236 237 236 235 235 235 234 234 234 234 233 233 232 231 232 232 232 233 233
170 211 205 149 229 257 248 246 246 238 239 247 250 245 239 242 242 234 230 227 228 234 235 236 242 248 249 254 266 275 279 273 266 258 241 242 238 236 250 255 257 261 266 274 280 281 282 284 280 269 261 264 267 263 258 258 260 259 257 256 254 249 243 237 234 235 237 239 238 235 234 234 232 232 233 232 233 232 231 230 229 229 229 228 228 228
172 195 187 163 215 257 251 246 249 247 244 243 239 233 228 228 233 236 236 234 232 233 234 236 239 244 250 252 259 267 268 266 264 255 221 236 239 234 246 251 254 259 264 273 282 283 280 280 277 268 260 262 266 266 263 260 260 261 261 260 257 250 242 238 235 234 237 239 237 234 232 232 231 231 232 231 230 230 227 225 225 224 224 224 223 223
181 197 207 165 181 255 258 261 266 252 247 243 226 222 223 227 231 237 242 239 236 234 235 242 244 241 244 246 249 256 262 267 272 260 202 233 247 247 252 254 255 260 265 272 277 277 273 268 269 273 269 263 265 269 270 266 262 262 264 264 260 252 244 239 234 231 234 237 237 233 229 228 228 229 230 228 226 224 221 220 220 219 220 219 218 219
182 202 212 176 181 255 268 274 262 245 241 242 239 229 223 225 229 235 241 239 235 233 234 240 245 245 248 252 256 260 264 267 271 267 234 235 237 245 258 264 263 258 256 261 263 267 269 262 258 270 273 271 269 269 269 266 263 262 262 261 258 252 245 240 234 230 231 234 236 233 227 224 224 224 224 223 220 218 218 218 218 217 216 215 215 216
192 203 206 203 211 244 263 241 236 263 265 259 266 258 218 214 221 229 240 240 234 232 234 237 242 245 245 248 252 254 257 264 272 271 249 240 237 247 261 265 265 257 249 252 254 258 267 269 265 267 272 276 277 273 269 268 265 261 260 257 253 249 246 240 235 231 230 231 234 232 226 222 220 218 218 215 213 214 215 216 216 215 214 214 215 215
207 208 207 219 212 212 243 240 246 288 284 273 273 255 210 199 207 213 233 245 236 229 230 234 238 239 238 240 244 248 253 265 280 277 261 243 222 230 243 247 252 254 251 255 257 256 261 267 271 272 273 274 273 270 270 271 270 264 260 255 248 244 240 234 232 232 231 231 233 231 227 221 217 214 212 209 209 211 213 214 214 213 213 213 214 215
220 215 204 214 212 202 231 249 250 259 259 253 252 245 222 202 206 203 221 249 244 229 223 225 232 236 237 240 243 248 256 266 271 272 272 247 194 220 240 247 252 257 262 266 268 269 271 274 277 280 281 276 271 270 270 270 270 264 256 251 243 237 232 228 230 232 232 234 235 233 228 221 216 213 210 207 209 210 210 211 211 212 213 216 219 221
200 218 202 210 220 214 223 235 236 239 244 246 253 256 227 198 191 177 213 247 247 239 226 220 229 234 235 240 242 244 252 254 253 262 287 32 306 254 245 258 266 272 277 276 275 276 281 285 287 289 289 281 273 274 275 273 269 261 254 252 246 235 229 228 230 233 235 237 237 233 228 222 216 214 212 210 212 211 209 209 209 212 216 219 221 221
174 187 198 203 218 224 228 237 239 245 252 247 254 273 249 200 156 147 218 244 249 254 237 211 222 234 232 237 243 239 233 237 249 260 254 8 295 275 235 253 267 270 276 281 283 284 286 290 292 291 289 284 279 281 283 281 273 261 257 258 251 238 234 234 238 241 240 238 236 233 229 223 218 216 215 214 213 211 209 209 209 212 216 215 213 213
194 192 197 204 219 224 229 241 250 255 252 241 236 233 203 138 114 179 223 228 196 316 291 202 210 232 235 234 236 232 231 235 253 279 287 293 303 299 280 279 285 286 285 286 289 291 292 294 294 292 291 291 291 290 287 280 270 262 261 260 252 246 246 247 250 249 243 237 235 233 230 225 221 220 219 217 214 210 209 210 210 211 210 205 203 205
189 187 194 201 214 223 230 240 254 267 247 207 188 206 172 145 183 218 217 139 118 91 9 94 160 258 270 246 231 227 242 258 267 284 295 301 305 299 294 300 302 298 296 294 295 298 298 297 299 298 297 299 300 297 291 279 264 261 262 257 252 254 256 257 256 251 244 239 237 234 230 227 223 221 219 217 214 209 207 209 210 210 206 201 199 200
174 172 198 200 192 196 223 217 225 267 242 153 132 131 222 206 217 199 150 97 124 125 13 13 24 9 165 257 276 264 278 293 287 284 287 283 279 278 281 290 293 293 296 298 300 305 306 302 301 301 303 306 306 303 298 282 262 262 261 256 258 262 261 259 257 251 244 240 238 234 232 229 224 220 216 214 212 209 207 206 205 205 202 199 196 196
183 176 195 210 180 160 193 211 211 237 216 156 152 188 217 208 187 141 131 121 113 239 277 273 267 235 181 188 252 264 269 270 267 272 276 274 273 271 274 283 286 286 292 294 297 305 308 303 300 302 305 308 308 306 303 288 269 266 264 263 267 267 262 258 256 249 242 239 236 234 233 229 223 218 214 212 209 207 205 203 200 198 198 197 194 191
213 194 181 195 196 191 212 222 219 228 240 219 211 221 234 227 135 140 128 107 124 228 245 250 263 250 203 199 224 238 251 259 264 274 278 279 281 277 278 286 285 285 291 295 299 306 309 303 300 302 304 307 309 309 307 297 278 267 268 273 276 275 267 262 255 245 240 237 234 233 231 226 221 216 212 210 207 204 202 199 195 193 193 192 191 188
236 189 149 166 223 248 250 247 247 257 265 270 271 250 221 263 212 195 185 156 175 215 236 252 260 255 220 204 212 226 245 257 271 279 278 281 287 285 277 278 283 288 293 296 300 308 312 310 305 301 299 304 310 311 309 304 289 274 276 282 284 281 275 267 254 245 241 236 233 232 227 220 217 213 210 209 206 204 203 198 193 191 189 189 189 188
268 174 163 213 221 227 251 253 246 245 250 264 290 287 258 237 220 209 216 208 187 199 225 238 252 257 230 204 215 243 259 267 279 288 289 287 288 292 290 285 286 289 290 294 301 308 312 311 305 302 297 300 307 311 310 308 301 290 289 290 286 281 277 268 255 246 240 234 231 228 221 216 212 208 207 207 204 204 203 199 196 192 188 187 187 186
257 162 181 220 222 223 242 252 255 265 262 254 256 270 276 266 240 212 199 199 192 203 221 224 231 252 266 257 261 278 291 298 298 295 294 293 293 298 299 294 290 289 291 295 301 307 310 306 300 299 295 294 302 308 309 308 306 302 299 297 290 281 273 266 256 247 241 235 228 222 217 214 209 205 204 204 203 202 200 198 197 196 194 193 191 188
137 164 186 196 227 255 268 275 292 295 288 280 260 250 258 277 281 274 271 292 345 334 313 286 244 228 248 274 286 295 301 301 299 294 291 293 298 299 297 296 295 292 293 296 300 303 304 300 297 295 292 292 300 306 307 307 309 309 305 301 295 283 269 262 257 249 241 233 223 217 214 210 207 206 204 201 202 204 203 202 201 200 201 201 200 198
169 209 193 161 247 263 260 231 204 253 273 281 288 274 262 268 300 308 315 332 353 0 342 326 312 287 261 248 249 272 290 293 293 292 289 289 293 295 295 297 297 295 294 296 299 299 296 293 294 293 292 296 302 306 307 309 312 313 311 305 297 283 269 262 257 250 240 229 219 213 210 207 206 206 204 200 199 199 201 205 206 206 207 207 207 208
202 198 174 201 242 241 176 175 203 276 271 257 260 288 291 306 349 324 310 310 317 315 286 297 304 303 299 285 235 229 267 284 290 295 295 293 292 292 292 293 292 294 298 300 300 298 295 295 295 292 292 298 304 307 309 311 314 317 315 309 301 287 271 262 255 249 239 229 221 213 208 206 205 203 202 201 197 192 190 191 197 204 210 210 208 208